GW3759 Weather Reports


Display with metric or nautical units.
time (UTC)temp
F
wind
direction
speed
MPH
gust
MPH
rain 1hr
in
rain 24hr
in
rain mn
in
humidity
%
barometer
mb
20260509183005 71 155 12.0 20.0 0.00 0.00 0.00 54 1009.0
20260509181503 70 199 5.0 13.0 0.00 0.00 0.00 59 1009.3
20260509180012 69 167 8.0 15.0 0.00 0.00 0.00 61 1009.4
20260509174517 69 167 7.0 12.0 0.00 0.00 0.00 62 1009.7
20260509173013 68 144 9.0 14.0 0.00 0.00 0.00 63 1009.6
20260509171503 68 149 6.0 14.0 0.00 0.00 0.00 63 1010.0
20260509170008 68 175 7.0 16.0 0.00 0.00 0.00 63 1010.0
20260509164504 67 134 6.0 16.0 0.00 0.00 0.00 65 1010.2
20260509163020 67 180 6.0 22.0 0.00 0.00 0.00 64 1010.2
20260509161522 67 156 10.0 17.0 0.00 0.00 0.00 62 1010.2
20260509160006 67 169 10.0 16.0 0.00 0.00 0.00 61 1010.3
20260509154512 67 165 9.0 16.0 0.00 0.00 0.00 63 1010.2
20260509153012 66 162 8.0 18.0 0.00 0.00 0.00 64 1010.4
20260509151507 65 132 9.0 19.0 0.00 0.00 0.00 64 1010.7
20260509150027 64 118 4.0 10.0 0.00 0.00 0.00 66 1010.6
20260509144514 63 131 7.0 11.0 0.00 0.00 0.00 65 1010.7
20260509143023 62 140 6.0 16.0 0.00 0.00 0.00 66 1011.0
20260509141513 62 163 7.0 13.0 0.00 0.00 0.00 67 1011.3
20260509140004 61 89 2.0 10.0 0.00 0.00 0.00 68 1011.3
20260509134508 61 126 6.0 14.0 0.00 0.00 0.00 70 1011.6
20260509133007 60 152 4.0 11.0 0.00 0.00 0.00 71 1011.7
20260509131506 59 167 3.0 7.0 0.00 0.00 0.00 72 1011.6
20260509130004 58 126 3.0 12.0 0.00 0.00 0.00 71 1011.7
20260509124503 57 155 3.0 9.0 0.00 0.00 0.00 72 1011.7
20260509123004 57 165 2.0 12.0 0.00 0.00 0.00 73 1011.7
20260509121523 57 155 5.0 11.0 0.00 0.00 0.00 72 1011.7
20260509120003 56 143 5.0 13.0 0.00 0.00 0.00 74 1011.7
20260509114503 56 171 4.0 10.0 0.00 0.00 0.00 75 1011.8
20260509113004 55 178 3.0 8.0 0.00 0.00 0.00 72 1011.7
20260509111508 55 141 2.0 5.0 0.00 0.00 0.00 73 1011.7
20260509110004 55 140 3.0 8.0 0.00 0.00 0.00 72 1011.7
20260509104510 55 161 4.0 8.0 0.00 0.00 0.00 70 1011.5
20260509103003 55 133 3.0 7.0 0.00 0.00 0.00 68 1011.5
20260509101518 55 136 1.0 4.0 0.00 0.00 0.00 67 1011.5
20260509100006 55 125 0.0 3.0 0.00 0.00 0.00 69 1011.3
20260509094516 55 125 0.0 3.0 0.00 0.00 0.00 69 1011.4
20260509093003 55 132 1.0 8.0 0.00 0.00 0.00 69 1011.5
20260509091506 55 144 2.0 6.0 0.00 0.00 0.00 68 1011.5
20260509090012 55 130 2.0 6.0 0.00 0.00 0.00 67 1011.6
20260509084517 55 140 2.0 4.0 0.00 0.00 0.00 67 1011.8
20260509083015 55 133 3.0 6.0 0.00 0.00 0.00 67 1011.9
20260509081519 55 145 2.0 6.0 0.00 0.00 0.00 66 1012.1
20260509080004 55 138 2.0 5.0 0.00 0.00 0.00 65 1012.2
20260509074516 55 142 0.0 3.0 0.00 0.00 0.00 66 1012.3
20260509073024 55 134 0.0 2.0 0.00 0.00 0.00 67 1012.4
20260509071520 56 134 0.0 1.0 0.00 0.00 0.00 65 1012.4
20260509070008 56 134 0.0 3.0 0.00 0.00 0.00 63 1012.5
20260509064508 56 132 1.0 3.0 0.00 0.00 0.00 61 1012.5
20260509063007 57 129 0.0 1.0 0.00 0.00 0.00 61 1012.5
20260509061524 57 129 0.0 2.0 0.00 0.00 0.00 61 1012.5
20260509060027 57 153 1.0 5.0 0.00 0.00 0.00 59 1012.7
20260509054518 57 153 2.0 5.0 0.00 0.00 0.00 58 1012.5
20260509053017 58 185 2.0 4.0 0.00 0.00 0.00 58 1012.4
20260509051522 58 135 1.0 4.0 0.00 0.00 0.00 56 1012.5
20260509050005 58 133 1.0 5.0 0.00 0.00 0.00 55 1012.5
20260509044513 58 142 1.0 3.0 0.00 0.00 0.00 56 1012.5
20260509043009 58 154 0.0 1.0 0.00 0.00 0.00 57 1012.5
20260509041525 58 143 0.0 2.0 0.00 0.00 0.00 55 1012.5
20260509040020 58 126 0.0 4.0 0.00 0.00 0.00 55 1012.6
20260509034507 58 136 0.0 3.0 0.00 0.00 0.00 56 1012.9
20260509033012 58 142 0.0 2.0 0.00 0.00 0.00 55 1012.9
20260509031510 59 137 0.0 1.0 0.00 0.00 0.00 56 1012.9
20260509030008 59 137 1.0 2.0 0.00 0.00 0.00 54 1012.9
20260509024524 59 137 0.0 2.0 0.00 0.00 0.00 55 1013.0
20260509023014 59 137 0.0 2.0 0.00 0.00 0.00 56 1013.0
20260509021519 59 137 0.0 0.0 0.00 0.00 0.00 55 1012.8
20260509020015 60 137 0.0 0.0 0.00 0.00 0.00 53 1012.7
20260509014512 61 137 0.0 0.0 0.00 0.00 0.00 51 1012.6
20260509013023 62 137 0.0 0.0 0.00 0.00 0.00 50 1012.6
20260509011512 62 137 0.0 0.0 0.00 0.00 0.00 48 1012.5
20260509010015 63 137 0.0 0.0 0.00 0.00 0.00 48 1012.4
20260509004525 64 137 0.0 1.0 0.00 0.00 0.00 45 1012.3
20260509003021 65 137 1.0 3.0 0.00 0.00 0.00 43 1012.3
20260509001518 66 51 1.0 3.0 0.00 0.00 0.00 45 1012.2
20260509000010 67 130 1.0 3.0 0.00 0.00 0.00 42 1012.1
20260508234522 68 71 0.0 3.0 0.00 0.00 0.00 42 1011.9
20260508233027 68 138 2.0 6.0 0.00 0.00 0.00 41 1011.9
20260508231525 69 132 3.0 9.0 0.00 0.00 0.00 37 1011.7
20260508230007 69 112 5.0 14.0 0.00 0.00 0.00 38 1011.6
20260508224510 70 155 6.0 18.0 0.00 0.00 0.00 35 1011.5
20260508223010 70 167 8.0 16.0 0.00 0.00 0.00 37 1011.5
20260508221505 70 157 7.0 16.0 0.00 0.00 0.00 37 1011.5
20260508220010 70 161 3.0 13.0 0.00 0.00 0.00 36 1011.6
20260508214507 70 154 3.0 14.0 0.00 0.00 0.00 36 1011.6
20260508213003 70 108 7.0 16.0 0.00 0.00 0.00 37 1011.7
20260508211504 70 155 8.0 16.0 0.00 0.00 0.00 36 1011.8
20260508210011 70 165 8.0 16.0 0.00 0.00 0.00 35 1011.8
20260508204518 70 166 2.0 14.0 0.00 0.00 0.00 35 1011.8
20260508203013 69 207 3.0 14.0 0.00 0.00 0.00 36 1012.0
20260508201506 69 150 7.0 14.0 0.00 0.00 0.00 35 1012.0
20260508200005 69 163 8.0 17.0 0.00 0.00 0.00 37 1012.3
20260508194505 68 148 9.0 18.0 0.00 0.00 0.00 36 1012.6
20260508193035 67 138 4.0 16.0 0.00 0.00 0.00 37 1012.6
20260508191524 67 135 6.0 14.0 0.00 0.00 0.00 43 1013.0
20260508190004 67 140 7.0 11.0 0.00 0.00 0.00 39 1013.2
20260508184512 67 174 5.0 17.0 0.00 0.00 0.00 40 1013.5